Location: Quebec
(46.8000°N, 71.2500°W)
Time: 17:32:31
(UTC-04:00)

Vanguard 2 - Visible Passes

Search period start: 19 July 2018 00:00
Search period end: 29 July 2018 00:00
Orbit: 553 x 2939 km, 32.9° (Epoch: 19 July)

Date Brightness Start Highest point End Pass type
(mag) Time Alt. Az. Time Alt. Az. Time Alt. Az.
19 Jul 10.6 01:22:41 10° W 01:34:40 24° SW 01:35:39 24° SW visible
19 Jul 10.6 21:16:00 10° WSW 21:32:02 50° S 21:47:45 10° ESE visible
19 Jul 10.5 23:27:17 10° W 23:42:56 40° SSW 23:50:15 27° SSE visible
20 Jul 10.9 01:41:56 10° W 01:51:35 19° SW 01:51:35 19° SW visible
20 Jul 10.6 21:33:55 10° WSW 21:49:54 49° S 22:04:53 12° ESE visible
20 Jul 10.5 23:45:36 10° W 00:00:32 35° SSW 00:06:14 28° S visible
21 Jul 11.2 02:02:17 10° WSW 02:07:34 14° SW 02:07:34 14° SW visible
21 Jul 10.6 21:51:54 10° WSW 22:07:44 47° SSW 22:20:55 16° SE visible
22 Jul 10.7 00:04:07 10° W 00:18:02 30° SW 00:22:16 27° SSW visible
22 Jul 10.7 22:10:00 10° W 22:25:32 43° SSW 22:37:00 20° SE visible
23 Jul 10.9 00:22:56 10° W 00:35:25 24° SW 00:38:21 23° SSW visible
23 Jul 10.8 22:28:10 10° W 22:43:15 39° SSW 22:53:08 22° SSE visible
24 Jul 11.1 00:42:18 10° W 00:52:45 19° SW 00:54:29 19° SW visible
24 Jul 10.7 20:35:38 10° WSW 20:50:06 48° S 21:06:33 10° ESE visible
24 Jul 10.8 22:46:31 10° W 23:00:53 34° SSW 23:09:19 23° SSE visible
25 Jul 11.3 01:02:52 10° WSW 01:09:59 14° SW 01:10:40 14° SW visible
25 Jul 10.7 20:53:37 10° WSW 21:07:58 45° SSW 21:24:08 10° SE visible
25 Jul 10.9 23:05:04 10° W 23:18:27 29° SSW 23:25:34 22° S visible
26 Jul 10.8 21:11:43 10° W 21:25:47 41° SSW 21:40:29 12° SE visible
26 Jul 11.1 23:23:59 10° W 23:35:56 23° SW 23:41:50 19° SSW visible
27 Jul 10.9 21:29:55 10° W 21:43:33 37° SSW 21:56:49 14° SSE visible
27 Jul 11.3 23:43:34 10° WSW 23:53:21 18° SW 23:58:11 16° SSW visible
28 Jul 11.0 21:48:18 10° W 22:01:15 32° SSW 22:13:12 15° SSE visible
